period_start,C,m1,H,J0,J1,J2,J3,J4,J5,JA,JB,JC,JD,JJ,JK,JN,#
2017-07-20 00:00:31,0.00,1.82,0.00,19.28,23.47,26.52,14.24,46.20,1017.51,2047.06,2898.49,2607.47,2992.98,600.40,604.49,38.40,0000 0000 0000 0000 000000
2017-07-20 00:05:32,0.00,1.82,0.00,19.28,23.47,26.53,14.14,46.02,1017.54,2047.06,2898.30,2607.53,2992.99,599.89,604.10,38.45,0000 0000 0000 0000 000000
2017-07-20 00:10:33,0.01,1.82,0.00,19.28,23.45,26.51,14.14,46.04,1017.51,2047.05,2898.34,2607.61,2992.97,599.98,604.13,38.50,0000 0000 0000 0000 000000
2017-07-20 00:15:34,0.00,1.82,0.00,19.28,23.45,26.52,14.14,46.02,1017.56,2047.05,2898.09,2607.45,2992.96,599.75,603.97,38.56,0000 0000 0000 0000 000000
2017-07-20 00:20:36,0.01,1.82,0.00,19.28,23.45,26.51,14.14,46.06,1017.59,2047.12,2898.02,2607.36,2992.93,600.16,604.30,38.61,0000 0000 0000 0000 000000
2017-07-20 00:25:37,0.00,1.82,0.00,19.27,23.44,26.49,14.16,46.08,1017.58,2047.12,2898.00,2607.17,2992.80,600.02,604.12,38.66,0000 0000 0000 0000 000000
2017-07-20 00:30:38,0.05,1.82,0.00,19.28,23.43,26.50,14.21,45.98,1017.59,2047.29,2898.00,2607.08,2992.29,600.05,604.24,38.71,0000 0000 0000 0000 000000
2017-07-20 00:35:40,0.02,1.82,0.00,19.25,23.42,26.51,14.14,45.83,1017.59,2047.52,2897.99,2607.04,2992.12,599.76,604.01,38.76,0000 0000 0000 0000 000000
2017-07-20 00:40:41,-0.00,1.82,0.00,19.26,23.42,26.50,14.14,46.02,1017.59,2047.54,2897.97,2607.03,2992.07,600.30,604.55,38.81,0000 0000 0000 0000 000000
2017-07-20 00:45:42,0.00,1.82,0.00,19.27,23.42,26.47,14.14,45.92,1017.59,2047.64,2897.96,2607.04,2992.06,600.00,604.31,38.86,0000 0000 0000 0000 000000
2017-07-20 00:50:43,0.00,1.82,0.00,19.24,23.41,26.48,14.16,46.05,1017.60,2047.53,2897.87,2607.01,2992.02,599.95,604.23,38.91,0000 0000 0000 0000 000000
2017-07-20 00:55:45,0.01,1.82,0.00,19.24,23.40,26.50,14.17,45.93,1017.63,2047.63,2897.76,2607.02,2992.02,600.09,604.43,38.96,0000 0000 0000 0000 000000
2017-07-20 01:00:46,0.02,1.83,0.00,19.24,23.40,26.47,14.12,45.93,1017.63,2047.82,2897.31,2607.01,2992.02,600.24,604.55,39.01,0000 0000 0000 0000 000000
2017-07-20 01:05:47,0.01,1.83,0.00,19.23,23.40,26.47,14.22,45.93,1017.64,2047.95,2897.03,2607.00,2992.00,600.00,604.53,39.06,0000 0000 0000 0000 000000
2017-07-20 01:10:48,0.00,1.83,0.00,19.23,23.39,26.48,14.12,45.81,1017.63,2047.92,2897.01,2607.00,2992.00,599.80,604.07,39.11,0000 0000 0000 0000 000000
2017-07-20 01:15:49,-0.00,1.83,0.00,19.22,23.38,26.46,14.12,46.10,1017.63,2047.96,2897.00,2607.00,2992.00,599.78,604.13,39.16,0000 0000 0000 0000 000000
2017-07-20 01:20:50,-0.00,1.83,0.00,19.22,23.37,26.46,14.17,45.95,1017.68,2047.96,2897.00,2607.00,2992.00,599.73,604.09,39.21,0000 0000 0000 0000 000000
2017-07-20 01:25:51,0.00,1.83,0.00,19.22,23.37,26.45,14.15,45.92,1017.79,2047.96,2896.99,2607.00,2992.00,600.04,604.44,39.26,0000 0000 0000 0000 000000
2017-07-20 01:30:53,0.00,1.83,0.00,19.23,23.37,26.44,14.16,45.96,1017.80,2047.98,2896.99,2607.00,2991.98,600.13,604.56,39.31,0000 0000 0000 0000 000000
2017-07-20 01:35:54,-0.00,1.83,0.00,19.23,23.37,26.42,14.13,46.09,1017.99,2047.98,2896.95,2607.00,2991.97,599.75,604.34,39.36,0000 0000 0000 0000 000000
2017-07-20 01:40:56,0.01,1.83,0.00,19.23,23.37,26.43,14.20,46.03,1018.06,2047.98,2896.65,2607.00,2991.86,600.14,604.70,39.41,0000 0000 0000 0000 000000
2017-07-20 01:45:57,0.01,1.83,0.00,19.22,23.37,26.43,14.15,46.09,1018.06,2047.98,2896.04,2606.99,2991.25,599.99,604.72,39.47,0000 0000 0000 0000 000000
2017-07-20 01:50:58,-0.00,1.83,0.00,19.22,23.37,26.44,14.21,46.17,1018.06,2047.98,2896.00,2606.97,2991.07,600.07,604.67,39.52,0000 0000 0000 0000 000000
2017-07-20 01:56:00,-0.00,1.83,0.00,19.22,23.37,26.42,14.10,46.09,1018.07,2047.99,2896.01,2606.99,2991.22,599.65,604.24,39.57,0000 0000 0000 0000 000000
2017-07-20 02:01:01,-0.00,1.83,0.00,19.22,23.35,26.42,14.22,46.01,1018.08,2047.99,2896.00,2606.99,2991.48,599.99,604.55,39.62,0000 0000 0000 0000 000000
2017-07-20 02:06:02,0.00,1.83,0.00,19.22,23.35,26.45,14.20,46.14,1018.08,2047.99,2896.00,2606.99,2991.31,600.16,604.97,39.67,0000 0000 0000 0000 000000
2017-07-20 02:11:03,0.00,1.83,0.00,19.22,23.35,26.43,14.12,46.02,1018.09,2047.99,2896.00,2606.99,2991.12,599.84,604.55,39.72,0000 0000 0000 0000 000000
2017-07-20 02:16:04,0.00,1.83,0.00,19.23,23.35,26.45,14.22,46.17,1018.10,2048.00,2896.00,2606.98,2991.03,600.18,604.78,39.77,0000 0000 0000 0000 000000
2017-07-20 02:21:06,0.00,1.83,0.00,19.22,23.35,26.42,14.16,46.13,1018.12,2048.00,2895.98,2606.99,2991.01,600.01,604.60,39.82,0000 0000 0000 0000 000000
2017-07-20 02:26:07,0.00,1.83,0.00,19.22,23.35,26.44,14.20,46.02,1018.14,2048.00,2895.97,2606.99,2991.00,599.88,604.48,39.87,0000 0000 0000 0000 000000
2017-07-20 02:31:08,0.00,1.83,0.00,19.22,23.35,26.43,14.14,46.08,1018.26,2048.00,2895.97,2606.98,2991.00,599.76,604.46,39.92,0000 0000 0000 0000 000000
2017-07-20 02:36:09,0.00,1.83,0.00,19.22,23.35,26.41,14.13,45.93,1018.40,2048.00,2895.97,2606.99,2991.00,599.95,604.81,39.97,0000 0000 0000 0000 000000
2017-07-20 02:41:11,0.00,1.83,0.00,19.22,23.34,26.41,14.15,46.02,1018.46,2048.00,2895.93,2606.99,2991.00,600.00,604.91,40.02,0000 0000 0000 0000 000000
2017-07-20 02:46:12,0.00,1.83,0.00,19.22,23.34,26.44,14.11,46.05,1018.55,2048.00,2895.57,2606.99,2990.99,599.99,604.91,40.07,0000 0000 0000 0000 000000
2017-07-20 02:51:13,0.01,1.83,0.00,19.22,23.34,26.41,14.27,46.08,1018.57,2048.01,2895.26,2606.99,2990.98,600.44,605.34,40.12,0000 0000 0000 0000 000000
2017-07-20 02:56:14,0.00,1.83,0.00,19.22,23.34,26.45,14.19,45.98,1018.57,2048.00,2895.04,2606.97,2990.96,599.97,604.89,40.17,0000 0000 0000 0000 000000
2017-07-20 03:01:16,0.00,1.83,0.00,19.21,23.34,26.43,14.15,46.02,1018.57,2048.00,2895.00,2606.98,2990.80,599.91,604.78,40.22,0000 0000 0000 0000 000000
2017-07-20 03:06:17,0.00,1.83,0.00,19.22,23.34,26.42,14.20,45.96,1018.60,2048.02,2895.00,2606.98,2990.53,600.12,605.09,40.27,0000 0000 0000 0000 000000
2017-07-20 03:11:19,0.00,1.83,0.00,19.22,23.33,26.43,14.17,46.08,1018.60,2048.01,2895.00,2606.98,2990.19,600.13,605.13,40.32,0000 0000 0000 0000 000000
2017-07-20 03:16:20,0.00,1.83,0.00,19.22,23.33,26.41,14.19,46.09,1018.67,2048.00,2894.96,2606.95,2990.04,600.38,605.26,40.38,0000 0000 0000 0000 000000
2017-07-20 03:21:21,0.01,1.83,0.00,19.22,23.32,26.41,14.20,46.05,1018.87,2048.00,2894.69,2606.90,2990.00,600.00,605.08,40.43,0000 0000 0000 0000 000000
2017-07-20 03:26:22,0.02,1.83,0.00,19.20,23.32,26.40,14.14,46.15,1018.99,2048.00,2894.14,2606.67,2989.99,600.05,605.25,40.48,0000 0000 0000 0000 000000
2017-07-20 03:31:23,-0.00,1.83,0.00,19.20,23.32,26.40,14.20,46.04,1019.06,2048.01,2894.02,2606.66,2989.98,599.74,604.97,40.53,0000 0000 0000 0000 000000
2017-07-20 03:36:25,0.01,1.83,0.00,19.20,23.32,26.40,14.20,45.84,1019.06,2048.01,2894.00,2606.55,2989.97,599.98,605.21,40.58,0000 0000 0000 0000 000000
2017-07-20 03:41:26,0.01,1.83,0.00,19.21,23.32,26.42,14.15,45.90,1019.06,2048.00,2893.99,2606.23,2989.80,599.67,604.84,40.63,0000 0000 0000 0000 000000
2017-07-20 03:46:27,0.01,1.83,0.00,19.19,23.32,26.42,14.24,45.99,1019.07,2048.00,2893.91,2606.06,2989.22,600.31,605.51,40.68,0000 0000 0000 0000 000000
2017-07-20 03:51:29,0.02,1.84,0.00,19.20,23.32,26.42,14.22,46.02,1019.08,2048.00,2893.23,2606.02,2989.02,600.13,605.37,40.73,0000 0000 0000 0000 000000
2017-07-20 03:56:30,0.00,1.84,0.00,19.19,23.32,26.38,14.18,45.86,1019.12,2048.00,2892.99,2606.00,2989.00,600.08,605.47,40.78,0000 0000 0000 0000 000000
2017-07-20 04:01:31,0.00,1.84,0.00,19.19,23.32,26.41,14.21,46.08,1019.13,2048.00,2892.98,2606.00,2988.97,600.09,605.57,40.83,0000 0000 0000 0000 000000
2017-07-20 04:06:32,-0.00,1.84,0.00,19.19,23.32,26.42,14.19,45.99,1019.19,2048.01,2892.96,2606.00,2988.94,599.86,605.23,40.88,0000 0000 0000 0000 000000
2017-07-20 04:11:33,0.03,1.84,0.00,19.19,23.32,26.39,14.17,46.02,1019.27,2048.00,2892.45,2605.96,2988.38,600.12,605.49,40.93,0000 0000 0000 0000 000000
2017-07-20 04:16:35,0.03,1.84,0.00,19.20,23.32,26.41,14.13,45.93,1019.29,2048.01,2891.89,2605.24,2988.00,599.82,605.21,40.98,0000 0000 0000 0000 000000
2017-07-20 04:21:36,0.02,1.84,0.00,19.20,23.32,26.38,14.24,46.03,1019.31,2048.00,2891.26,2605.01,2987.85,600.16,605.56,41.03,0000 0000 0000 0000 000000
2017-07-20 04:26:37,0.01,1.84,0.00,19.21,23.32,26.40,14.22,46.00,1019.31,2048.01,2891.01,2605.00,2987.33,600.13,605.45,41.08,0000 0000 0000 0000 000000
2017-07-20 04:31:39,0.00,1.84,0.00,19.21,23.32,26.40,14.23,45.96,1019.50,2048.00,2891.00,2605.00,2987.09,599.95,605.41,41.13,0000 0000 0000 0000 000000
2017-07-20 04:36:40,0.00,1.84,0.00,19.22,23.32,26.40,14.16,45.93,1019.55,2048.01,2890.96,2605.00,2987.00,600.00,605.41,41.18,0000 0000 0000 0000 000000
2017-07-20 04:41:42,0.01,1.84,0.00,19.22,23.32,26.42,14.22,46.01,1019.55,2048.01,2890.31,2604.97,2986.98,600.44,605.95,41.23,0000 0000 0000 0000 000000
2017-07-20 04:46:43,0.02,1.84,0.00,19.22,23.32,26.43,14.17,46.03,1019.55,2048.03,2890.01,2604.89,2986.58,599.84,605.25,41.28,0000 0000 0000 0000 000000
2017-07-20 04:51:44,0.02,1.84,0.00,19.22,23.32,26.40,14.18,46.01,1019.55,2048.01,2889.98,2604.22,2986.04,599.99,605.53,41.34,0000 0000 0000 0000 000000
2017-07-20 04:56:45,0.01,1.85,0.00,19.23,23.32,26.41,14.12,46.20,1019.57,2048.02,2889.85,2604.05,2986.00,599.62,605.08,41.39,0000 0000 0000 0000 000000
2017-07-20 05:01:46,0.00,1.85,0.00,19.22,23.32,26.41,14.15,45.90,1019.58,2048.01,2889.62,2604.06,2985.99,600.00,605.58,41.44,0000 0000 0000 0000 000000
2017-07-20 05:06:48,0.01,1.85,0.00,19.22,23.32,26.39,14.19,45.98,1019.77,2048.01,2889.04,2604.01,2985.89,600.03,605.68,41.49,0000 0000 0000 0000 000000
2017-07-20 05:11:49,0.01,1.85,0.00,19.23,23.32,26.41,14.22,46.05,1019.90,2048.01,2889.00,2604.00,2985.28,600.09,605.77,41.54,0000 0000 0000 0000 000000
2017-07-20 05:16:50,0.01,1.85,0.00,19.24,23.33,26.42,14.21,46.08,1020.02,2048.03,2888.61,2603.99,2985.01,599.96,605.61,41.59,0000 0000 0000 0000 000000
2017-07-20 05:21:51,0.02,1.85,0.00,19.23,23.33,26.41,14.22,45.99,1020.03,2048.02,2888.03,2603.80,2984.81,599.92,605.89,41.64,0000 0000 0000 0000 000000
2017-07-20 05:26:53,0.04,1.85,0.00,19.24,23.34,26.40,14.21,46.06,1020.03,2048.04,2887.71,2603.08,2984.06,600.23,605.95,41.69,0000 0000 0000 0000 000000
2017-07-20 05:31:54,0.02,1.85,0.00,19.24,23.34,26.43,14.22,46.06,1020.03,2048.01,2887.00,2602.98,2983.46,600.02,605.82,41.74,0000 0000 0000 0000 000000
2017-07-20 05:36:56,0.02,1.85,0.00,19.24,23.34,26.41,14.21,46.08,1020.04,2048.01,2886.48,2602.83,2983.01,600.30,606.03,41.79,0000 0000 0000 0000 000000
2017-07-20 05:41:57,0.02,1.85,0.00,19.24,23.34,26.43,14.17,46.00,1020.06,2048.01,2886.09,2602.42,2982.98,599.97,605.69,41.84,0000 0000 0000 0000 000000
2017-07-20 05:46:59,0.01,1.86,0.00,19.24,23.34,26.44,14.21,45.98,1020.08,2048.00,2886.00,2602.06,2982.68,600.25,606.00,41.89,0000 0000 0000 0000 000000
2017-07-20 05:52:00,0.02,1.86,0.00,19.26,23.34,26.44,14.18,45.98,1020.12,2048.01,2885.73,2602.00,2982.07,599.94,605.72,41.94,0000 0000 0000 0000 000000
2017-07-20 05:57:01,0.00,1.86,0.00,19.26,23.34,26.42,14.17,46.03,1020.15,2048.00,2885.04,2601.98,2981.94,599.60,605.30,41.99,0000 0000 0000 0000 000000
2017-07-20 06:02:03,0.02,1.86,0.00,19.26,23.35,26.43,14.28,46.34,1020.13,2048.00,2884.99,2601.84,2981.21,600.61,606.36,42.04,0000 0000 0000 0000 000000
2017-07-20 06:07:04,0.04,1.86,0.00,19.27,23.35,26.45,14.20,46.09,1020.18,2048.00,2884.47,2601.23,2981.00,600.10,605.86,42.09,0000 0000 0000 0000 000000
2017-07-20 06:12:06,0.01,1.86,0.00,19.27,23.35,26.43,14.18,46.15,1020.17,2048.00,2884.00,2601.01,2980.77,599.80,605.54,42.14,0000 0000 0000 0000 000000
2017-07-20 06:17:07,0.01,1.86,0.00,19.28,23.35,26.44,14.17,46.12,1020.12,2047.99,2883.71,2600.98,2980.05,599.99,605.77,42.20,0000 0000 0000 0000 000000
2017-07-20 06:22:08,0.01,1.86,0.00,19.27,23.35,26.46,14.23,46.19,1020.18,2047.99,2883.11,2600.95,2980.00,599.93,605.68,42.25,0000 0000 0000 0000 000000
2017-07-20 06:27:10,0.01,1.86,0.00,19.29,23.36,26.45,14.14,46.05,1020.20,2047.99,2883.01,2600.81,2979.97,600.07,605.83,42.30,0000 0000 0000 0000 000000
2017-07-20 06:32:11,0.03,1.86,0.00,19.31,23.37,26.45,14.20,46.08,1020.18,2047.99,2882.95,2600.20,2979.51,600.06,605.69,42.35,0000 0000 0000 0000 000000
2017-07-20 06:37:12,0.01,1.87,0.00,19.33,23.37,26.44,14.16,46.08,1020.26,2047.99,2882.54,2600.02,2979.02,600.12,605.68,42.40,0000 0000 0000 0000 000000
2017-07-20 06:42:13,0.00,1.87,0.00,19.34,23.37,26.43,14.10,45.92,1020.33,2047.98,2882.06,2600.00,2978.99,599.94,605.64,42.45,0000 0000 0000 0000 000000
2017-07-20 06:47:15,0.01,1.87,0.00,19.36,23.37,26.44,14.23,46.21,1020.48,2047.99,2881.99,2599.98,2978.69,599.74,605.57,42.50,0000 0000 0000 0000 000000
2017-07-20 06:52:16,0.01,1.87,0.00,19.36,23.37,26.44,14.17,46.17,1020.51,2047.98,2881.85,2599.82,2978.05,599.86,605.51,42.55,0000 0000 0000 0000 000000
2017-07-20 06:57:17,0.03,1.87,0.00,19.37,23.38,26.47,14.15,45.98,1020.52,2047.97,2881.21,2599.29,2978.00,599.87,605.60,42.60,0000 0000 0000 0000 000000
2017-07-20 07:02:18,0.00,1.87,0.00,19.38,23.39,26.49,14.20,46.03,1020.52,2047.98,2881.03,2599.06,2977.99,600.30,606.05,42.65,0000 0000 0000 0000 000000
2017-07-20 07:07:20,0.01,1.87,0.00,19.39,23.39,26.47,14.19,46.15,1020.54,2047.96,2881.00,2599.00,2977.43,599.98,605.69,42.70,0000 0000 0000 0000 000000
2017-07-20 07:12:21,0.01,1.87,0.00,19.39,23.40,26.48,14.22,46.09,1020.55,2047.91,2880.73,2599.00,2977.05,599.87,605.58,42.75,0000 0000 0000 0000 000000
2017-07-20 07:17:22,0.01,1.87,0.00,19.40,23.41,26.48,14.19,46.09,1020.57,2047.90,2880.08,2598.96,2977.00,600.05,605.74,42.80,0000 0000 0000 0000 000000
2017-07-20 07:22:23,-0.03,1.87,0.00,19.41,23.42,26.48,14.13,46.03,1020.57,2047.61,2880.01,2598.62,2976.93,599.94,605.63,42.85,0000 0000 0000 0000 000000
2017-07-20 07:27:24,0.00,1.87,0.00,19.42,23.42,26.52,14.13,45.99,1020.80,2047.27,2880.00,2598.18,2976.53,599.77,605.53,42.90,0000 0000 0000 0000 000000
2017-07-20 07:32:25,0.02,1.87,0.00,19.43,23.42,26.54,14.16,45.98,1020.99,2047.30,2879.95,2598.02,2976.04,600.13,605.97,42.95,0000 0000 0000 0000 000000
2017-07-20 07:37:27,-0.00,1.87,0.00,19.44,23.44,26.55,14.15,45.90,1021.01,2047.34,2879.92,2598.01,2976.00,600.14,605.97,43.00,0000 0000 0000 0000 000000
2017-07-20 07:42:28,-0.00,1.87,0.00,19.45,23.44,26.51,14.15,46.16,1021.01,2047.17,2879.28,2598.00,2976.00,600.01,605.89,43.05,0000 0000 0000 0000 000000
2017-07-20 07:47:29,0.00,1.87,0.00,19.44,23.45,26.56,14.18,46.05,1021.01,2047.09,2879.01,2597.99,2975.91,600.14,605.99,43.10,0000 0000 0000 0000 000000
2017-07-20 07:52:31,0.03,1.87,0.00,19.46,23.45,26.56,14.25,46.06,1021.01,2047.01,2878.99,2597.60,2975.15,599.94,605.70,43.15,0000 0000 0000 0000 000000
2017-07-20 07:57:32,0.01,1.87,0.00,19.47,23.47,26.57,14.22,46.03,1021.01,2047.02,2878.82,2597.04,2975.00,600.33,606.22,43.21,0000 0000 0000 0000 000000
2017-07-20 08:02:33,0.01,1.87,0.00,19.47,23.47,26.58,14.18,46.02,1021.01,2047.01,2878.25,2597.00,2974.97,599.92,605.62,43.26,0000 0000 0000 0000 000000
2017-07-20 08:07:34,0.02,1.88,0.00,19.49,23.48,26.59,14.17,46.02,1021.01,2047.01,2878.01,2597.00,2974.44,600.09,605.80,43.31,0000 0000 0000 0000 000000
2017-07-20 08:12:35,0.01,1.88,0.00,19.51,23.49,26.58,14.23,46.11,1021.05,2047.00,2877.89,2596.83,2974.01,600.02,605.86,43.36,0000 0000 0000 0000 000000
2017-07-20 08:17:37,0.04,1.88,0.00,19.53,23.50,26.57,14.19,45.98,1021.34,2047.00,2877.10,2596.10,2973.89,600.08,605.97,43.41,0000 0000 0000 0000 000000
2017-07-20 08:22:38,0.02,1.88,0.00,19.54,23.51,26.59,14.19,45.98,1021.49,2047.00,2877.00,2596.00,2973.20,599.98,605.94,43.46,0000 0000 0000 0000 000000
2017-07-20 08:27:39,0.00,1.88,0.00,19.54,23.52,26.59,14.15,46.00,1021.50,2047.00,2876.83,2595.99,2973.02,600.00,605.94,43.51,0000 0000 0000 0000 000000
2017-07-20 08:32:40,0.03,1.88,0.00,19.54,23.52,26.64,14.11,46.02,1021.50,2047.00,2876.05,2595.70,2972.84,599.68,605.76,43.56,0000 0000 0000 0000 000000
2017-07-20 08:37:42,0.02,1.88,0.00,19.54,23.54,26.62,14.20,46.14,1021.50,2047.00,2875.88,2595.10,2972.12,599.97,605.85,43.61,0000 0000 0000 0000 000000
2017-07-20 08:42:43,0.01,1.88,0.00,19.55,23.55,26.64,14.12,46.10,1021.50,2047.00,2875.11,2595.00,2971.99,599.91,605.96,43.66,0000 0000 0000 0000 000000
2017-07-20 08:47:44,0.01,1.88,0.00,19.57,23.55,26.65,14.14,46.02,1021.50,2047.00,2874.99,2594.97,2971.71,599.99,605.83,43.71,0000 0000 0000 0000 000000
2017-07-20 08:52:45,0.03,1.89,0.00,19.57,23.56,26.66,14.12,46.08,1021.51,2047.00,2874.74,2594.70,2971.04,599.93,605.90,43.76,0000 0000 0000 0000 000000
2017-07-20 08:57:47,0.03,1.89,0.00,19.57,23.57,26.68,14.14,46.20,1021.51,2047.00,2874.05,2594.08,2970.98,599.91,606.01,43.81,0000 0000 0000 0000 000000
2017-07-20 09:02:48,0.01,1.89,0.00,19.59,23.57,26.70,14.20,46.16,1021.52,2047.00,2873.96,2594.00,2970.40,600.16,605.99,43.86,0000 0000 0000 0000 000000
2017-07-20 09:07:49,0.01,1.89,0.00,19.59,23.59,26.69,14.19,46.14,1021.58,2047.00,2873.38,2593.98,2970.02,600.02,605.97,43.91,0000 0000 0000 0000 000000
2017-07-20 09:12:50,0.01,1.89,0.00,19.59,23.60,26.69,14.15,46.06,1021.70,2047.00,2873.01,2593.88,2969.99,599.89,605.83,43.96,0000 0000 0000 0000 000000
2017-07-20 09:17:52,0.03,1.89,0.00,19.60,23.60,26.70,14.23,45.98,1021.82,2047.00,2872.97,2593.25,2969.56,600.16,606.19,44.01,0000 0000 0000 0000 000000
2017-07-20 09:22:53,0.02,1.89,0.00,19.61,23.62,26.70,14.13,45.95,1021.93,2047.00,2872.31,2593.02,2969.03,599.83,605.91,44.06,0000 0000 0000 0000 000000
2017-07-20 09:27:54,0.00,1.89,0.00,19.61,23.62,26.72,14.17,45.84,1021.92,2047.00,2872.01,2593.00,2968.98,600.02,606.11,44.12,0000 0000 0000 0000 000000
2017-07-20 09:32:56,0.00,1.89,0.00,19.62,23.62,26.75,14.23,45.82,1021.96,2047.00,2871.98,2593.00,2968.81,600.02,606.14,44.17,0000 0000 0000 0000 000000
2017-07-20 09:37:57,0.03,1.89,0.00,19.62,23.64,26.72,14.23,45.93,1021.96,2047.00,2871.54,2592.90,2968.09,599.75,605.87,44.22,0000 0000 0000 0000 000000
2017-07-20 09:42:58,0.03,1.90,0.00,19.62,23.65,26.72,14.15,45.94,1021.92,2047.00,2871.02,2592.25,2967.99,599.93,606.07,44.27,0000 0000 0000 0000 000000
2017-07-20 09:48:00,0.01,1.90,0.00,19.63,23.65,26.72,14.18,46.01,1021.96,2047.00,2870.90,2592.02,2967.75,599.78,605.84,44.32,0000 0000 0000 0000 000000
2017-07-20 09:53:01,0.02,1.90,0.00,19.64,23.66,26.76,14.20,45.92,1021.96,2047.00,2870.12,2591.99,2967.05,599.98,605.89,44.37,0000 0000 0000 0000 000000
2017-07-20 09:58:02,0.00,1.90,0.00,19.64,23.67,26.75,14.15,45.90,1021.99,2046.98,2869.98,2591.84,2966.96,599.64,605.72,44.42,0000 0000 0000 0000 000000
2017-07-20 10:03:04,0.04,1.90,0.00,19.65,23.67,26.76,14.18,45.91,1021.99,2046.98,2869.64,2591.29,2966.50,600.13,606.22,44.47,0000 0000 0000 0000 000000
2017-07-20 10:08:05,0.01,1.90,0.00,19.64,23.67,26.77,14.22,45.90,1021.99,2046.97,2869.04,2591.01,2966.02,600.18,606.28,44.52,0000 0000 0000 0000 000000
2017-07-20 10:13:06,-0.00,1.90,0.00,19.67,23.69,26.75,14.23,45.81,1021.99,2046.95,2868.99,2591.00,2965.98,599.80,605.75,44.57,0000 0000 0000 0000 000000
2017-07-20 10:18:07,0.02,1.90,0.00,19.67,23.70,26.79,14.24,45.94,1021.99,2046.97,2868.77,2590.99,2965.81,600.30,606.36,44.62,0000 0000 0000 0000 000000
2017-07-20 10:23:08,0.03,1.90,0.00,19.67,23.70,26.79,14.13,45.73,1021.99,2046.98,2868.13,2590.86,2965.16,600.04,606.04,44.67,0000 0000 0000 0000 000000
2017-07-20 10:28:10,0.01,1.90,0.00,19.68,23.70,26.81,14.26,45.93,1022.01,2046.95,2868.00,2590.64,2965.01,600.49,606.58,44.72,0000 0000 0000 0000 000000
2017-07-20 10:33:11,-0.00,1.91,0.00,19.69,23.72,26.82,14.23,45.92,1022.00,2046.87,2868.00,2590.18,2964.99,600.23,606.28,44.77,0000 0000 0000 0000 000000
2017-07-20 10:38:13,0.01,1.91,0.00,19.71,23.72,26.81,14.18,45.93,1022.05,2046.78,2867.59,2590.01,2964.72,599.88,605.85,44.82,0000 0000 0000 0000 000000
2017-07-20 10:43:14,0.01,1.91,0.00,19.71,23.72,26.82,14.12,45.81,1022.21,2046.64,2867.02,2590.00,2964.06,599.90,605.89,44.87,0000 0000 0000 0000 000000
2017-07-20 10:48:15,-0.03,1.91,0.00,19.72,23.74,26.83,14.18,45.95,1022.24,2046.53,2866.98,2589.97,2963.98,599.99,606.04,44.92,0000 0000 0000 0000 000000
2017-07-20 10:53:17,0.01,1.91,0.00,19.72,23.75,26.85,14.20,45.95,1022.40,2046.26,2866.66,2589.70,2963.92,600.10,606.09,44.97,0000 0000 0000 0000 000000
2017-07-20 10:58:18,0.04,1.91,0.00,19.74,23.75,26.86,14.17,45.87,1022.44,2046.23,2866.05,2589.17,2963.28,599.93,606.05,45.03,0000 0000 0000 0000 000000
2017-07-20 11:03:19,-0.00,1.91,0.00,19.73,23.76,26.85,14.15,45.91,1022.42,2046.16,2865.91,2589.01,2963.00,599.87,605.98,45.08,0000 0000 0000 0000 000000
2017-07-20 11:08:20,0.04,1.91,0.00,19.73,23.77,26.86,14.21,45.93,1022.40,2046.05,2865.05,2588.68,2962.35,599.86,605.97,45.13,0000 0000 0000 0000 000000
2017-07-20 11:13:21,0.02,1.91,0.00,19.74,23.77,26.87,14.12,45.84,1022.44,2046.01,2864.34,2588.06,2961.96,599.85,606.05,45.18,0000 0000 0000 0000 000000
2017-07-20 11:18:23,0.01,1.91,0.00,19.74,23.78,26.86,14.25,45.87,1022.43,2046.00,2864.01,2588.00,2961.28,600.32,606.48,45.23,0000 0000 0000 0000 000000
2017-07-20 11:23:24,0.00,1.91,0.00,19.74,23.80,26.88,14.20,45.92,1022.40,2046.01,2863.98,2587.99,2961.01,599.98,606.04,45.28,0000 0000 0000 0000 000000
2017-07-20 11:28:25,0.01,1.91,0.00,19.74,23.80,26.90,14.15,46.05,1022.37,2046.01,2863.54,2587.93,2961.00,599.89,605.88,45.33,0000 0000 0000 0000 000000
2017-07-20 11:33:27,0.01,1.91,0.00,19.75,23.80,26.91,14.16,45.88,1022.35,2046.00,2863.04,2587.69,2960.95,599.99,606.23,45.38,0000 0000 0000 0000 000000
2017-07-20 11:38:29,0.01,1.91,0.00,19.76,23.82,26.93,14.20,45.86,1022.29,2046.00,2863.00,2587.37,2960.82,600.14,606.13,45.43,0000 0000 0000 0000 000000
2017-07-20 11:43:30,0.02,1.92,0.00,19.76,23.82,26.93,14.21,45.80,1022.15,2046.00,2862.99,2587.12,2960.32,599.95,605.75,45.48,0000 0000 0000 0000 000000
2017-07-20 11:48:31,0.00,1.92,0.00,19.75,23.82,26.92,14.16,45.90,1022.14,2046.00,2862.98,2587.06,2960.09,599.66,605.59,45.53,0000 0000 0000 0000 000000
2017-07-20 11:53:32,0.00,1.92,0.00,19.76,23.82,26.93,14.27,45.90,1022.21,2046.00,2862.77,2587.01,2960.01,600.25,606.13,45.58,0000 0000 0000 0000 000000
2017-07-20 11:58:34,0.01,1.92,0.00,19.77,23.84,26.93,14.17,45.89,1022.07,2046.00,2862.23,2587.00,2960.00,599.80,605.65,45.63,0000 0000 0000 0000 000000
2017-07-20 12:03:35,0.00,1.92,0.00,19.77,23.85,26.94,14.17,45.86,1022.04,2046.00,2862.04,2587.00,2959.98,599.77,605.62,45.68,0000 0000 0000 0000 000000
2017-07-20 12:08:36,0.00,1.92,0.00,19.77,23.85,26.91,14.17,45.79,1022.07,2046.00,2862.02,2587.00,2959.97,600.01,605.89,45.73,0000 0000 0000 0000 000000
2017-07-20 12:13:37,0.00,1.92,0.00,19.78,23.85,26.93,14.14,45.97,1022.11,2045.99,2862.00,2586.99,2959.84,599.93,605.86,45.78,0000 0000 0000 0000 000000
2017-07-20 12:18:39,0.01,1.92,0.00,19.78,23.85,26.95,14.19,46.02,1022.04,2045.99,2861.99,2586.98,2959.43,600.04,605.83,45.83,0000 0000 0000 0000 000000
2017-07-20 12:23:40,0.00,1.92,0.00,19.79,23.87,26.93,14.25,45.94,1022.05,2045.98,2861.97,2586.98,2959.14,600.43,606.06,45.88,0000 0000 0000 0000 000000
2017-07-20 12:28:41,0.00,1.92,0.00,19.78,23.87,26.94,14.18,45.88,1022.02,2045.99,2861.91,2586.97,2959.05,599.75,605.65,45.93,0000 0000 0000 0000 000000
2017-07-20 12:33:43,0.02,1.92,0.00,19.78,23.87,26.97,14.25,45.90,1022.03,2045.99,2861.39,2586.79,2959.01,600.60,606.43,45.98,0000 0000 0000 0000 000000
2017-07-20 12:38:44,0.01,1.92,0.00,19.79,23.87,26.96,14.18,45.93,1022.01,2045.99,2861.01,2586.36,2958.99,600.02,605.83,46.04,0000 0000 0000 0000 000000
2017-07-20 12:43:45,-0.00,1.92,0.00,19.78,23.87,26.96,14.24,45.89,1022.00,2045.98,2861.00,2586.30,2958.99,600.05,605.93,46.09,0000 0000 0000 0000 000000
2017-07-20 12:48:46,0.00,1.92,0.00,19.78,23.88,26.98,14.20,45.87,1022.03,2045.99,2861.00,2586.17,2958.98,599.99,605.74,46.14,0000 0000 0000 0000 000000
2017-07-20 12:53:47,0.00,1.92,0.00,19.79,23.89,26.98,14.20,45.93,1022.00,2045.99,2861.00,2586.09,2958.96,600.24,606.12,46.19,0000 0000 0000 0000 000000